| time (UTC) | temp C | wind direction | speed KPH | gust KPH | rain 1hr cm | rain 24hr cm | rain mn cm | humidity % | barometer mb |
| 20260906224001 | 38 | 314 | 3.2 | 9.7 | 0.00 | 0.00 | 0.00 | 34 | 1010.4 |
| 20260906223456 | 38 | 49 | 3.2 | 11.3 | 0.00 | 0.00 | 0.00 | 33 | 1010.5 |
| 20260906222954 | 38 | 60 | 0.0 | 6.4 | 0.00 | 0.00 | 0.00 | 33 | 1010.6 |
| 20260906222450 | 38 | 342 | 6.4 | 6.4 | 0.00 | 0.00 | 0.00 | 33 | 1010.7 |
| 20260906221947 | 38 | 325 | 3.2 | 12.9 | 0.00 | 0.00 | 0.00 | 33 | 1010.7 |
| 20260906221446 | 38 | 334 | 0.0 | 6.4 | 0.00 | 0.00 | 0.00 | 32 | 1010.8 |
| 20260906220942 | 38 | 114 | 3.2 | 4.8 | 0.00 | 0.00 | 0.00 | 33 | 1010.6 |
| 20260906220437 | 38 | 265 | 1.6 | 8.0 | 0.00 | 0.00 | 0.00 | 34 | 1010.7 |
| 20260906215937 | 38 | 30 | 4.8 | 14.5 | 0.00 | 0.00 | 0.00 | 34 | 1010.8 |
| 20260906215436 | 38 | 65 | 6.4 | 11.3 | 0.00 | 0.00 | 0.00 | 34 | 1010.8 |
| 20260906214935 | 38 | 143 | 4.8 | 9.7 | 0.00 | 0.00 | 0.00 | 33 | 1010.8 |
| 20260906214434 | 37 | 8 | 3.2 | 6.4 | 0.00 | 0.00 | 0.00 | 35 | 1010.8 |
| 20260906213933 | 37 | 202 | 0.0 | 6.4 | 0.00 | 0.00 | 0.00 | 35 | 1010.9 |
| 20260906213428 | 38 | 37 | 3.2 | 6.4 | 0.00 | 0.00 | 0.00 | 35 | 1010.9 |
| 20260906212926 | 38 | 357 | 4.8 | 8.0 | 0.00 | 0.00 | 0.00 | 34 | 1011.0 |
| 20260906212421 | 37 | 3 | 0.0 | 3.2 | 0.00 | 0.00 | 0.00 | 37 | 1011.1 |
| 20260906211922 | 37 | 334 | 1.6 | 1.6 | 0.00 | 0.00 | 0.00 | 36 | 1011.1 |
| 20260906211422 | 38 | 61 | 1.6 | 4.8 | 0.00 | 0.00 | 0.00 | 35 | 1011.4 |
| 20260906210917 | 37 | 351 | 3.2 | 9.7 | 0.00 | 0.00 | 0.00 | 36 | 1011.4 |
| 20260906210413 | 37 | 24 | 3.2 | 6.4 | 0.00 | 0.00 | 0.00 | 35 | 1011.5 |
| 20260906205907 | 38 | 30 | 1.6 | 8.0 | 0.00 | 0.00 | 0.00 | 35 | 1011.6 |
| 20260906205403 | 38 | 197 | 1.6 | 6.4 | 0.00 | 0.00 | 0.00 | 35 | 1011.7 |
| 20260906204859 | 38 | 346 | 3.2 | 8.0 | 0.00 | 0.00 | 0.00 | 34 | 1011.7 |
| 20260906204357 | 38 | 0 | 1.6 | 12.9 | 0.00 | 0.00 | 0.00 | 35 | 1011.8 |
| 20260906203857 | 37 | 56 | 3.2 | 6.4 | 0.00 | 0.00 | 0.00 | 34 | 1012.1 |
| 20260906203352 | 37 | 242 | 4.8 | 6.4 | 0.00 | 0.00 | 0.00 | 36 | 1011.8 |
| 20260906202850 | 37 | 246 | 3.2 | 6.4 | 0.00 | 0.00 | 0.00 | 37 | 1011.9 |
| 20260906202349 | 38 | 286 | 3.2 | 4.8 | 0.00 | 0.00 | 0.00 | 36 | 1012.0 |
| 20260906201849 | 38 | 103 | 4.8 | 8.0 | 0.00 | 0.00 | 0.00 | 35 | 1012.1 |
| 20260906201344 | 38 | 97 | 4.8 | 6.4 | 0.00 | 0.00 | 0.00 | 35 | 1012.0 |
| 20260906200839 | 38 | 103 | 6.4 | 6.4 | 0.00 | 0.00 | 0.00 | 35 | 1011.9 |
| 20260906200335 | 38 | 308 | 3.2 | 4.8 | 0.00 | 0.00 | 0.00 | 38 | 1012.2 |
| 20260906195830 | 38 | 260 | 1.6 | 9.7 | 0.00 | 0.00 | 0.00 | 36 | 1012.1 |
| 20260906195326 | 37 | 173 | 3.2 | 8.0 | 0.00 | 0.00 | 0.00 | 37 | 1012.3 |
| 20260906194822 | 37 | 118 | 1.6 | 6.4 | 0.00 | 0.00 | 0.00 | 37 | 1012.2 |
| 20260906194318 | 36 | 336 | 3.2 | 3.2 | 0.00 | 0.00 | 0.00 | 38 | 1012.4 |
| 20260906193812 | 37 | 135 | 6.4 | 12.9 | 0.00 | 0.00 | 0.00 | 37 | 1012.3 |
| 20260906193307 | 37 | 293 | 0.0 | 1.6 | 0.00 | 0.00 | 0.00 | 38 | 1012.7 |
| 20260906192804 | 37 | 230 | 1.6 | 6.4 | 0.00 | 0.00 | 0.00 | 38 | 1012.5 |
| 20260906192306 | 38 | 11 | 3.2 | 8.0 | 0.00 | 0.00 | 0.00 | 36 | 1012.5 |
| 20260906191802 | 38 | 336 | 4.8 | 9.7 | 0.00 | 0.00 | 0.00 | 37 | 1012.7 |
| 20260906191257 | 37 | 331 | 3.2 | 4.8 | 0.00 | 0.00 | 0.00 | 39 | 1012.7 |
| 20260906190752 | 37 | 355 | 6.4 | 9.7 | 0.00 | 0.00 | 0.00 | 37 | 1012.6 |
| 20260906190252 | 37 | 44 | 0.0 | 12.9 | 0.00 | 0.00 | 0.00 | 37 | 1012.6 |
| 20260906185751 | 37 | 82 | 1.6 | 12.9 | 0.00 | 0.00 | 0.00 | 37 | 1012.6 |
| 20260906185250 | 37 | 79 | 3.2 | 11.3 | 0.00 | 0.00 | 0.00 | 38 | 1012.7 |
| 20260906184745 | 36 | 70 | 3.2 | 17.7 | 0.00 | 0.00 | 0.00 | 39 | 1012.8 |
| 20260906184240 | 37 | 357 | 4.8 | 8.0 | 0.00 | 0.00 | 0.00 | 39 | 1012.8 |
| 20260906183736 | 37 | 242 | 3.2 | 3.2 | 0.00 | 0.00 | 0.00 | 39 | 1012.9 |
| 20260906183232 | 37 | 106 | 1.6 | 9.7 | 0.00 | 0.00 | 0.00 | 39 | 1013.1 |
| 20260906182732 | 37 | 354 | 4.8 | 8.0 | 0.00 | 0.00 | 0.00 | 38 | 1013.1 |
| 20260906182228 | 37 | 88 | 3.2 | 8.0 | 0.00 | 0.00 | 0.00 | 39 | 1013.2 |
| 20260906181723 | 36 | 297 | 0.0 | 6.4 | 0.00 | 0.00 | 0.00 | 41 | 1013.2 |
| 20260906181220 | 37 | 187 | 3.2 | 9.7 | 0.00 | 0.00 | 0.00 | 40 | 1013.3 |
| 20260906180719 | 37 | 343 | 1.6 | 6.4 | 0.00 | 0.00 | 0.00 | 40 | 1013.4 |
| 20260906180214 | 36 | 265 | 1.6 | 6.4 | 0.00 | 0.00 | 0.00 | 41 | 1013.5 |
| 20260906175712 | 36 | 78 | 1.6 | 4.8 | 0.00 | 0.00 | 0.00 | 42 | 1013.3 |
| 20260906175208 | 36 | 311 | 3.2 | 8.0 | 0.00 | 0.00 | 0.00 | 43 | 1013.7 |
| 20260906174706 | 36 | 324 | 3.2 | 4.8 | 0.00 | 0.00 | 0.00 | 42 | 1013.6 |
| 20260906174200 | 36 | 79 | 3.2 | 9.7 | 0.00 | 0.00 | 0.00 | 42 | 1013.7 |
| 20260906173656 | 36 | 72 | 1.6 | 4.8 | 0.00 | 0.00 | 0.00 | 41 | 1013.9 |
| 20260906173151 | 36 | 100 | 3.2 | 6.4 | 0.00 | 0.00 | 0.00 | 43 | 1014.0 |
| 20260906172651 | 36 | 143 | 0.0 | 8.0 | 0.00 | 0.00 | 0.00 | 44 | 1014.0 |
| 20260906172146 | 35 | 74 | 3.2 | 9.7 | 0.00 | 0.00 | 0.00 | 46 | 1014.1 |
| 20260906171646 | 36 | 103 | 12.9 | 14.5 | 0.00 | 0.00 | 0.00 | 44 | 1014.2 |
| 20260906171141 | 35 | 94 | 3.2 | 6.4 | 0.00 | 0.00 | 0.00 | 45 | 1014.2 |
| 20260906170638 | 36 | 9 | 1.6 | 4.8 | 0.00 | 0.00 | 0.00 | 44 | 1014.2 |
| 20260906170137 | 35 | 351 | 3.2 | 3.2 | 0.00 | 0.00 | 0.00 | 45 | 1014.5 |
| 20260906165633 | 35 | 327 | 0.0 | 4.8 | 0.00 | 0.00 | 0.00 | 46 | 1014.3 |
| 20260906165129 | 35 | 182 | 1.6 | 6.4 | 0.00 | 0.00 | 0.00 | 46 | 1014.3 |
| 20260906164627 | 33 | 7 | 4.8 | 11.3 | 0.00 | 0.00 | 0.00 | 49 | 1014.4 |
| 20260906164123 | 35 | 126 | 6.4 | 9.7 | 0.00 | 0.00 | 0.00 | 47 | 1014.6 |
| 20260906163619 | 35 | 105 | 3.2 | 9.7 | 0.00 | 0.00 | 0.00 | 47 | 1014.6 |
| 20260906163114 | 35 | 8 | 1.6 | 4.8 | 0.00 | 0.00 | 0.00 | 46 | 1014.6 |
| 20260906162611 | 35 | 38 | 0.0 | 4.8 | 0.00 | 0.00 | 0.00 | 48 | 1014.5 |
| 20260906162107 | 35 | 210 | 0.0 | 4.8 | 0.00 | 0.00 | 0.00 | 47 | 1014.3 |
| 20260906161607 | 35 | 6 | 3.2 | 6.4 | 0.00 | 0.00 | 0.00 | 49 | 1014.4 |
| 20260906161106 | 34 | 349 | 4.8 | 6.4 | 0.00 | 0.00 | 0.00 | 49 | 1014.7 |
| 20260906160605 | 34 | 0 | 3.2 | 3.2 | 0.00 | 0.00 | 0.00 | 50 | 1014.5 |
| 20260906160103 | 33 | 262 | 3.2 | 4.8 | 0.00 | 0.00 | 0.00 | 51 | 1014.5 |
| 20260906155601 | 33 | 89 | 3.2 | 8.0 | 0.00 | 0.00 | 0.00 | 52 | 1014.4 |
| 20260906155057 | 33 | 234 | 0.0 | 3.2 | 0.00 | 0.00 | 0.00 | 52 | 1014.5 |
| 20260906154552 | 33 | 28 | 3.2 | 9.7 | 0.00 | 0.00 | 0.00 | 54 | 1014.4 |
| 20260906154051 | 33 | 114 | 6.4 | 8.0 | 0.00 | 0.00 | 0.00 | 52 | 1014.5 |
| 20260906153550 | 33 | 58 | 1.6 | 6.4 | 0.00 | 0.00 | 0.00 | 52 | 1014.3 |
| 20260906153046 | 33 | 48 | 0.0 | 3.2 | 0.00 | 0.00 | 0.00 | 55 | 1014.3 |
| 20260906152545 | 33 | 336 | 0.0 | 4.8 | 0.00 | 0.00 | 0.00 | 55 | 1014.3 |
| 20260906152045 | 32 | 33 | 4.8 | 6.4 | 0.00 | 0.00 | 0.00 | 55 | 1014.0 |
| 20260906151540 | 32 | 13 | 0.0 | 6.4 | 0.00 | 0.00 | 0.00 | 56 | 1014.0 |
| 20260906151036 | 32 | 258 | 0.0 | 3.2 | 0.00 | 0.00 | 0.00 | 56 | 1014.0 |
| 20260906150531 | 32 | 68 | 3.2 | 4.8 | 0.00 | 0.00 | 0.00 | 57 | 1014.0 |
| 20260906150026 | 32 | 104 | 0.0 | 4.8 | 0.00 | 0.00 | 0.00 | 59 | 1014.0 |
| 20260906145525 | 32 | 62 | 0.0 | 3.2 | 0.00 | 0.00 | 0.00 | 58 | 1014.0 |
| 20260906145020 | 32 | 36 | 0.0 | 4.8 | 0.00 | 0.00 | 0.00 | 59 | 1014.0 |
| 20260906144514 | 31 | 75 | 0.0 | 3.2 | 0.00 | 0.00 | 0.00 | 59 | 1013.9 |
| 20260906144010 | 32 | 136 | 1.6 | 3.2 | 0.00 | 0.00 | 0.00 | 59 | 1013.9 |
| 20260906143505 | 31 | 180 | 0.0 | 3.2 | 0.00 | 0.00 | 0.00 | 61 | 1014.0 |
| 20260906143001 | 31 | 108 | 1.6 | 4.8 | 0.00 | 0.00 | 0.00 | 61 | 1013.9 |
| 20260906142501 | 30 | 268 | 0.0 | 4.8 | 0.00 | 0.00 | 0.00 | 63 | 1013.9 |
| 20260906141956 | 30 | 225 | 0.0 | 3.2 | 0.00 | 0.00 | 0.00 | 64 | 1014.0 |
| 20260906141455 | 30 | 245 | 0.0 | 3.2 | 0.00 | 0.00 | 0.00 | 66 | 1014.0 |
| 20260906140950 | 30 | 170 | 0.0 | 3.2 | 0.00 | 0.00 | 0.00 | 65 | 1014.0 |
| 20260906140445 | 30 | 306 | 0.0 | 0.0 | 0.00 | 0.00 | 0.00 | 68 | 1014.2 |
| 20260906135943 | 28 | 321 | 3.2 | 3.2 | 0.00 | 0.00 | 0.00 | 69 | 1014.1 |
| 20260906135441 | 28 | 304 | 0.0 | 1.6 | 0.00 | 0.00 | 0.00 | 70 | 1014.0 |
| 20260906134937 | 28 | 109 | 3.2 | 3.2 | 0.00 | 0.00 | 0.00 | 72 | 1014.0 |
| 20260906134433 | 27 | 137 | 3.2 | 3.2 | 0.00 | 0.00 | 0.00 | 73 | 1014.1 |
| 20260906133933 | 27 | 23 | 0.0 | 3.2 | 0.00 | 0.00 | 0.00 | 74 | 1014.2 |
| 20260906133429 | 27 | 180 | 0.0 | 1.6 | 0.00 | 0.00 | 0.00 | 75 | 1014.1 |
| 20260906132924 | 27 | 25 | 0.0 | 0.0 | 0.00 | 0.00 | 0.00 | 76 | 1014.1 |
| 20260906132419 | 27 | 208 | 1.6 | 1.6 | 0.00 | 0.00 | 0.00 | 76 | 1014.0 |
| 20260906131914 | 27 | 45 | 0.0 | 1.6 | 0.00 | 0.00 | 0.00 | 78 | 1014.2 |
| 20260906131410 | 26 | 356 | 0.0 | 3.2 | 0.00 | 0.00 | 0.00 | 79 | 1014.0 |
| 20260906130906 | 26 | 154 | 0.0 | 1.6 | 0.00 | 0.00 | 0.00 | 81 | 1014.2 |
| 20260906130405 | 26 | 62 | 0.0 | 1.6 | 0.00 | 0.00 | 0.00 | 82 | 1013.9 |
| 20260906125904 | 25 | 44 | 0.0 | 1.6 | 0.00 | 0.00 | 0.00 | 83 | 1013.7 |
| 20260906125401 | 25 | 205 | 0.0 | 1.6 | 0.00 | 0.00 | 0.00 | 84 | 1013.9 |
| 20260906124856 | 25 | 76 | 0.0 | 1.6 | 0.00 | 0.00 | 0.00 | 85 | 1013.7 |
| 20260906124353 | 25 | 343 | 0.0 | 0.0 | 0.00 | 0.00 | 0.00 | 85 | 1013.6 |
| 20260906123852 | 25 | 283 | 0.0 | 0.0 | 0.00 | 0.00 | 0.00 | 86 | 1013.9 |
| 20260906123346 | 25 | 50 | 0.0 | 0.0 | 0.00 | 0.00 | 0.00 | 86 | 1013.8 |
| 20260906122846 | 25 | 72 | 0.0 | 0.0 | 0.00 | 0.00 | 0.00 | 85 | 1013.6 |
| 20260906122341 | 25 | 269 | 0.0 | 0.0 | 0.00 | 0.00 | 0.00 | 85 | 1013.7 |
| 20260906121838 | 25 | 113 | 0.0 | 1.6 | 0.00 | 0.00 | 0.00 | 84 | 1013.7 |
| 20260906121334 | 25 | 309 | 0.0 | 0.0 | 0.00 | 0.00 | 0.00 | 84 | 1013.6 |
| 20260906120830 | 25 | 66 | 0.0 | 0.0 | 0.00 | 0.00 | 0.00 | 84 | 1013.5 |
| 20260906120325 | 25 | 284 | 0.0 | 0.0 | 0.00 | 0.00 | 0.00 | 84 | 1013.4 |
| 20260906115822 | 25 | 299 | 0.0 | 0.0 | 0.00 | 0.00 | 0.00 | 85 | 1013.3 |
| 20260906115317 | 25 | 309 | 0.0 | 0.0 | 0.00 | 0.00 | 0.00 | 84 | 1013.3 |
| 20260906114816 | 25 | 217 | 0.0 | 1.6 | 0.00 | 0.00 | 0.00 | 84 | 1013.4 |
| 20260906114311 | 25 | 13 | 0.0 | 0.0 | 0.00 | 0.00 | 0.00 | 83 | 1013.3 |
| 20260906113806 | 25 | 25 | 0.0 | 0.0 | 0.00 | 0.00 | 0.00 | 83 | 1013.3 |
| 20260906113306 | 25 | 288 | 0.0 | 0.0 | 0.00 | 0.00 | 0.00 | 83 | 1013.3 |
| 20260906112801 | 25 | 102 | 0.0 | 1.6 | 0.00 | 0.00 | 0.00 | 82 | 1013.0 |
| 20260906112257 | 25 | 353 | 0.0 | 0.0 | 0.00 | 0.00 | 0.00 | 82 | 1013.1 |
| 20260906111756 | 25 | 11 | 0.0 | 1.6 | 0.00 | 0.00 | 0.00 | 82 | 1013.0 |
| 20260906111255 | 25 | 217 | 0.0 | 0.0 | 0.00 | 0.00 | 0.00 | 82 | 1013.0 |
| 20260906110751 | 25 | 184 | 0.0 | 1.6 | 0.00 | 0.00 | 0.00 | 81 | 1012.9 |
| 20260906110247 | 25 | 60 | 0.0 | 1.6 | 0.00 | 0.00 | 0.00 | 81 | 1013.0 |
| 20260906105746 | 25 | 235 | 0.0 | 0.0 | 0.00 | 0.00 | 0.00 | 81 | 1013.0 |
| 20260906105242 | 25 | 145 | 0.0 | 1.6 | 0.00 | 0.00 | 0.00 | 80 | 1013.0 |
| 20260906104737 | 25 | 25 | 0.0 | 1.6 | 0.00 | 0.00 | 0.00 | 80 | 1013.0 |
| 20260906104236 | 25 | 52 | 0.0 | 0.0 | 0.00 | 0.00 | 0.00 | 80 | 1012.7 |
| 20260906103734 | 25 | 52 | 0.0 | 0.0 | 0.00 | 0.00 | 0.00 | 80 | 1012.8 |
| 20260906103234 | 26 | 66 | 0.0 | 1.6 | 0.00 | 0.00 | 0.00 | 80 | 1012.8 |
| 20260906102729 | 26 | 147 | 0.0 | 1.6 | 0.00 | 0.00 | 0.00 | 79 | 1012.7 |
| 20260906102228 | 26 | 333 | 0.0 | 0.0 | 0.00 | 0.00 | 0.00 | 79 | 1012.9 |
| 20260906101724 | 26 | 343 | 0.0 | 0.0 | 0.00 | 0.00 | 0.00 | 78 | 1012.7 |
| 20260906101219 | 26 | 44 | 0.0 | 1.6 | 0.00 | 0.00 | 0.00 | 78 | 1012.8 |
| 20260906100714 | 26 | 76 | 0.0 | 0.0 | 0.00 | 0.00 | 0.00 | 78 | 1012.7 |
| 20260906100209 | 26 | 66 | 0.0 | 0.0 | 0.00 | 0.00 | 0.00 | 78 | 1012.6 |
| 20260906095709 | 26 | 352 | 0.0 | 0.0 | 0.00 | 0.00 | 0.00 | 77 | 1012.8 |
| 20260906095204 | 26 | 318 | 0.0 | 1.6 | 0.00 | 0.00 | 0.00 | 77 | 1012.6 |
| 20260906094703 | 26 | 31 | 0.0 | 0.0 | 0.00 | 0.00 | 0.00 | 77 | 1012.5 |
| 20260906094159 | 26 | 255 | 0.0 | 0.0 | 0.00 | 0.00 | 0.00 | 77 | 1012.6 |
| 20260906093655 | 26 | 37 | 0.0 | 0.0 | 0.00 | 0.00 | 0.00 | 76 | 1012.4 |
| 20260906093150 | 26 | 288 | 0.0 | 1.6 | 0.00 | 0.00 | 0.00 | 75 | 1012.4 |
| 20260906092645 | 27 | 55 | 0.0 | 0.0 | 0.00 | 0.00 | 0.00 | 75 | 1012.4 |
| 20260906092144 | 27 | 13 | 0.0 | 0.0 | 0.00 | 0.00 | 0.00 | 75 | 1012.4 |
| 20260906091641 | 27 | 230 | 0.0 | 0.0 | 0.00 | 0.00 | 0.00 | 74 | 1012.3 |
| 20260906091137 | 27 | 284 | 0.0 | 1.6 | 0.00 | 0.00 | 0.00 | 73 | 1012.2 |
| 20260906090633 | 27 | 269 | 0.0 | 1.6 | 0.00 | 0.00 | 0.00 | 73 | 1012.2 |
| 20260906090132 | 27 | 101 | 0.0 | 1.6 | 0.00 | 0.00 | 0.00 | 72 | 1012.2 |
| 20260906085631 | 27 | 117 | 0.0 | 1.6 | 0.00 | 0.00 | 0.00 | 71 | 1012.1 |
| 20260906085132 | 27 | 80 | 3.2 | 3.2 | 0.00 | 0.00 | 0.00 | 71 | 1012.1 |
| 20260906084632 | 27 | 131 | 1.6 | 6.4 | 0.00 | 0.00 | 0.00 | 71 | 1012.2 |
| 20260906084131 | 28 | 116 | 0.0 | 3.2 | 0.00 | 0.00 | 0.00 | 71 | 1012.2 |
| 20260906083626 | 28 | 97 | 3.2 | 4.8 | 0.00 | 0.00 | 0.00 | 71 | 1012.2 |
| 20260906083127 | 28 | 94 | 3.2 | 3.2 | 0.00 | 0.00 | 0.00 | 71 | 1012.1 |
| 20260906082622 | 28 | 65 | 1.6 | 3.2 | 0.00 | 0.00 | 0.00 | 71 | 1012.0 |
| 20260906082118 | 28 | 174 | 1.6 | 3.2 | 0.00 | 0.00 | 0.00 | 70 | 1012.2 |
| 20260906081613 | 27 | 101 | 4.8 | 4.8 | 0.00 | 0.00 | 0.00 | 71 | 1012.2 |
| 20260906081108 | 27 | 29 | 0.0 | 1.6 | 0.00 | 0.00 | 0.00 | 71 | 1011.9 |
| 20260906080605 | 27 | 157 | 0.0 | 3.2 | 0.00 | 0.00 | 0.00 | 71 | 1012.0 |
| 20260906075601 | 28 | 66 | 3.2 | 3.2 | 0.00 | 0.00 | 0.00 | 70 | 1012.0 |
| 20260906075055 | 27 | 358 | 0.0 | 3.2 | 0.00 | 0.00 | 0.00 | 70 | 1012.0 |
| 20260906074550 | 28 | 304 | 0.0 | 0.0 | 0.00 | 0.00 | 0.00 | 70 | 1012.1 |
| 20260906074049 | 27 | 137 | 0.0 | 1.6 | 0.00 | 0.00 | 0.00 | 70 | 1012.2 |
| 20260906073544 | 27 | 89 | 0.0 | 0.0 | 0.00 | 0.00 | 0.00 | 71 | 1012.3 |
| 20260906073040 | 27 | 113 | 0.0 | 1.6 | 0.00 | 0.00 | 0.00 | 71 | 1012.4 |
| 20260906072535 | 27 | 230 | 0.0 | 0.0 | 0.00 | 0.00 | 0.00 | 71 | 1012.3 |
| 20260906072031 | 28 | 230 | 0.0 | 0.0 | 0.00 | 0.00 | 0.00 | 70 | 1012.4 |
| 20260906071527 | 28 | 230 | 0.0 | 0.0 | 0.00 | 0.00 | 0.00 | 69 | 1012.6 |
| 20260906071022 | 28 | 124 | 0.0 | 0.0 | 0.00 | 0.00 | 0.00 | 68 | 1012.6 |
| 20260906070518 | 28 | 37 | 0.0 | 0.0 | 0.00 | 0.00 | 0.00 | 68 | 1012.6 |
| 20260906070014 | 28 | 195 | 0.0 | 0.0 | 0.00 | 0.00 | 0.00 | 67 | 1012.4 |
| 20260906065513 | 28 | 180 | 0.0 | 1.6 | 0.00 | 0.00 | 0.00 | 67 | 1012.5 |
| 20260906065009 | 28 | 309 | 0.0 | 3.2 | 0.00 | 0.00 | 0.00 | 67 | 1012.4 |
| 20260906064505 | 28 | 315 | 1.6 | 1.6 | 0.00 | 0.00 | 0.00 | 66 | 1012.5 |
| 20260906063959 | 29 | 326 | 0.0 | 3.2 | 0.00 | 0.00 | 0.00 | 64 | 1012.5 |
| 20260906063455 | 29 | 89 | 0.0 | 3.2 | 0.00 | 0.00 | 0.00 | 64 | 1012.3 |
| 20260906062955 | 29 | 316 | 0.0 | 3.2 | 0.00 | 0.00 | 0.00 | 64 | 1012.5 |
| 20260906062450 | 29 | 326 | 0.0 | 3.2 | 0.00 | 0.00 | 0.00 | 64 | 1012.4 |
| 20260906061945 | 29 | 138 | 1.6 | 4.8 | 0.00 | 0.00 | 0.00 | 63 | 1012.5 |
| 20260906061441 | 29 | 124 | 0.0 | 4.8 | 0.00 | 0.00 | 0.00 | 63 | 1012.3 |
| 20260906060935 | 29 | 164 | 1.6 | 3.2 | 0.00 | 0.00 | 0.00 | 63 | 1012.6 |
| 20260906060433 | 29 | 135 | 0.0 | 3.2 | 0.00 | 0.00 | 0.00 | 63 | 1012.6 |
| 20260906055929 | 29 | 286 | 0.0 | 3.2 | 0.00 | 0.00 | 0.00 | 63 | 1012.5 |
| 20260906055424 | 28 | 84 | 0.0 | 1.6 | 0.00 | 0.00 | 0.00 | 64 | 1012.5 |
| 20260906054920 | 28 | 70 | 1.6 | 1.6 | 0.00 | 0.00 | 0.00 | 64 | 1012.4 |
| 20260906054414 | 29 | 309 | 0.0 | 0.0 | 0.00 | 0.00 | 0.00 | 64 | 1012.6 |
| 20260906053911 | 29 | 62 | 0.0 | 0.0 | 0.00 | 0.00 | 0.00 | 63 | 1012.5 |
| 20260906053406 | 29 | 76 | 1.6 | 3.2 | 0.00 | 0.00 | 0.00 | 63 | 1012.5 |
| 20260906052902 | 29 | 130 | 0.0 | 0.0 | 0.00 | 0.00 | 0.00 | 62 | 1012.6 |
| 20260906052358 | 30 | 205 | 0.0 | 0.0 | 0.00 | 0.00 | 0.00 | 62 | 1012.6 |
| 20260906051855 | 30 | 72 | 0.0 | 3.2 | 0.00 | 0.00 | 0.00 | 61 | 1012.4 |
| 20260906051354 | 30 | 119 | 3.2 | 3.2 | 0.00 | 0.00 | 0.00 | 60 | 1012.6 |
| 20260906050850 | 30 | 62 | 0.0 | 4.8 | 0.00 | 0.00 | 0.00 | 60 | 1012.4 |
| 20260906050345 | 30 | 77 | 3.2 | 4.8 | 0.00 | 0.00 | 0.00 | 59 | 1012.5 |
| 20260906045844 | 30 | 284 | 1.6 | 3.2 | 0.00 | 0.00 | 0.00 | 59 | 1012.7 |
| 20260906045338 | 30 | 94 | 4.8 | 4.8 | 0.00 | 0.00 | 0.00 | 59 | 1012.4 |
| 20260906044834 | 30 | 116 | 0.0 | 1.6 | 0.00 | 0.00 | 0.00 | 59 | 1012.6 |
| 20260906044334 | 30 | 41 | 0.0 | 3.2 | 0.00 | 0.00 | 0.00 | 58 | 1012.5 |
| 20260906043830 | 30 | 136 | 0.0 | 0.0 | 0.00 | 0.00 | 0.00 | 58 | 1012.4 |
| 20260906043326 | 30 | 27 | 0.0 | 3.2 | 0.00 | 0.00 | 0.00 | 58 | 1012.5 |
| 20260906042826 | 30 | 212 | 0.0 | 3.2 | 0.00 | 0.00 | 0.00 | 57 | 1012.6 |
| 20260906042325 | 30 | 341 | 0.0 | 6.4 | 0.00 | 0.00 | 0.00 | 57 | 1012.4 |
| 20260906041821 | 30 | 80 | 0.0 | 3.2 | 0.00 | 0.00 | 0.00 | 57 | 1012.6 |
| 20260906041316 | 30 | 9 | 1.6 | 3.2 | 0.00 | 0.00 | 0.00 | 56 | 1012.5 |
| 20260906040811 | 30 | 226 | 0.0 | 0.0 | 0.00 | 0.00 | 0.00 | 56 | 1012.4 |
| 20260906040307 | 30 | 29 | 0.0 | 1.6 | 0.00 | 0.00 | 0.00 | 55 | 1012.4 |
| 20260906035802 | 30 | 118 | 0.0 | 4.8 | 0.00 | 0.00 | 0.00 | 55 | 1012.3 |
| 20260906035257 | 31 | 269 | 0.0 | 0.0 | 0.00 | 0.00 | 0.00 | 55 | 1012.4 |
| 20260906034758 | 31 | 98 | 0.0 | 3.2 | 0.00 | 0.00 | 0.00 | 55 | 1012.5 |
| 20260906034258 | 31 | 99 | 3.2 | 3.2 | 0.00 | 0.00 | 0.00 | 55 | 1012.3 |
| 20260906033754 | 31 | 109 | 0.0 | 3.2 | 0.00 | 0.00 | 0.00 | 55 | 1012.5 |
| 20260906033253 | 31 | 74 | 3.2 | 3.2 | 0.00 | 0.00 | 0.00 | 54 | 1012.4 |
| 20260906032749 | 31 | 153 | 0.0 | 4.8 | 0.00 | 0.00 | 0.00 | 54 | 1012.3 |
| 20260906032249 | 31 | 74 | 3.2 | 4.8 | 0.00 | 0.00 | 0.00 | 54 | 1012.5 |
| 20260906031745 | 31 | 28 | 0.0 | 3.2 | 0.00 | 0.00 | 0.00 | 54 | 1012.5 |
| 20260906031241 | 31 | 89 | 0.0 | 4.8 | 0.00 | 0.00 | 0.00 | 54 | 1012.4 |
| 20260906030740 | 31 | 126 | 6.4 | 6.4 | 0.00 | 0.00 | 0.00 | 53 | 1012.5 |
| 20260906030235 | 31 | 69 | 3.2 | 4.8 | 0.00 | 0.00 | 0.00 | 53 | 1012.5 |
| 20260906025735 | 31 | 29 | 1.6 | 6.4 | 0.00 | 0.00 | 0.00 | 53 | 1012.4 |
| 20260906025229 | 31 | 310 | 4.8 | 6.4 | 0.00 | 0.00 | 0.00 | 52 | 1012.4 |
| 20260906024728 | 31 | 314 | 4.8 | 9.7 | 0.00 | 0.00 | 0.00 | 52 | 1012.3 |
| 20260906024227 | 31 | 108 | 6.4 | 8.0 | 0.00 | 0.00 | 0.00 | 52 | 1012.4 |
| 20260906023723 | 31 | 7 | 4.8 | 9.7 | 0.00 | 0.00 | 0.00 | 52 | 1012.5 |
| 20260906023219 | 31 | 84 | 3.2 | 6.4 | 0.00 | 0.00 | 0.00 | 52 | 1012.1 |
| 20260906022714 | 31 | 137 | 3.2 | 9.7 | 0.00 | 0.00 | 0.00 | 52 | 1012.1 |
| 20260906022209 | 32 | 74 | 3.2 | 9.7 | 0.00 | 0.00 | 0.00 | 52 | 1012.1 |
| 20260906021705 | 32 | 45 | 3.2 | 6.4 | 0.00 | 0.00 | 0.00 | 52 | 1011.8 |
| 20260906021204 | 32 | 0 | 3.2 | 11.3 | 0.00 | 0.00 | 0.00 | 52 | 1011.6 |
| 20260906020659 | 32 | 133 | 3.2 | 6.4 | 0.00 | 0.00 | 0.00 | 52 | 1011.8 |
| 20260906020153 | 32 | 2 | 1.6 | 4.8 | 0.00 | 0.00 | 0.00 | 52 | 1011.6 |
| 20260906015648 | 32 | 83 | 3.2 | 6.4 | 0.00 | 0.00 | 0.00 | 51 | 1011.6 |
| 20260906015147 | 32 | 3 | 3.2 | 6.4 | 0.00 | 0.00 | 0.00 | 50 | 1011.6 |
| 20260906014647 | 32 | 357 | 3.2 | 11.3 | 0.00 | 0.00 | 0.00 | 49 | 1011.5 |
| 20260906014143 | 33 | 137 | 4.8 | 8.0 | 0.00 | 0.00 | 0.00 | 48 | 1011.5 |
| 20260906013638 | 33 | 70 | 1.6 | 9.7 | 0.00 | 0.00 | 0.00 | 47 | 1011.3 |
| 20260906013134 | 33 | 41 | 4.8 | 8.0 | 0.00 | 0.00 | 0.00 | 46 | 1011.3 |
| 20260906012633 | 34 | 1 | 6.4 | 12.9 | 0.00 | 0.00 | 0.00 | 44 | 1010.9 |
| 20260906012128 | 35 | 70 | 0.0 | 3.2 | 0.00 | 0.00 | 0.00 | 41 | 1010.8 |
| 20260906011624 | 35 | 241 | 0.0 | 3.2 | 0.00 | 0.00 | 0.00 | 40 | 1010.5 |
| 20260906011124 | 35 | 330 | 3.2 | 6.4 | 0.00 | 0.00 | 0.00 | 40 | 1010.6 |
| 20260906010620 | 35 | 54 | 0.0 | 3.2 | 0.00 | 0.00 | 0.00 | 40 | 1010.6 |
| 20260906010116 | 35 | 22 | 1.6 | 3.2 | 0.00 | 0.00 | 0.00 | 39 | 1010.6 |
| 20260906005616 | 35 | 45 | 3.2 | 6.4 | 0.00 | 0.00 | 0.00 | 39 | 1010.7 |
| 20260906005115 | 35 | 89 | 0.0 | 4.8 | 0.00 | 0.00 | 0.00 | 38 | 1010.5 |
| 20260906004614 | 35 | 306 | 0.0 | 4.8 | 0.00 | 0.00 | 0.00 | 38 | 1010.6 |
| 20260906004109 | 35 | 39 | 1.6 | 3.2 | 0.00 | 0.00 | 0.00 | 37 | 1010.6 |
| 20260906003604 | 35 | 85 | 0.0 | 4.8 | 0.00 | 0.00 | 0.00 | 38 | 1010.5 |
| 20260906003101 | 36 | 40 | 0.0 | 4.8 | 0.00 | 0.00 | 0.00 | 37 | 1010.4 |
| 20260906002601 | 36 | 115 | 0.0 | 6.4 | 0.00 | 0.00 | 0.00 | 37 | 1010.5 |
| 20260906002055 | 36 | 101 | 3.2 | 6.4 | 0.00 | 0.00 | 0.00 | 37 | 1010.4 |
| 20260906001551 | 36 | 37 | 3.2 | 4.8 | 0.00 | 0.00 | 0.00 | 37 | 1010.5 |
| 20260906001051 | 36 | 92 | 3.2 | 9.7 | 0.00 | 0.00 | 0.00 | 36 | 1010.6 |
| 20260906000547 | 36 | 347 | 3.2 | 3.2 | 0.00 | 0.00 | 0.00 | 36 | 1010.5 |
| 20260906000042 | 36 | 67 | 3.2 | 6.4 | 0.00 | 0.00 | 0.00 | 36 | 1010.4 |
| 20260905235541 | 36 | 322 | 0.0 | 1.6 | 0.00 | 0.00 | 0.00 | 37 | 1010.4 |
| 20260905235036 | 36 | 334 | 3.2 | 6.4 | 0.00 | 0.00 | 0.00 | 35 | 1010.4 |
| 20260905234532 | 37 | 176 | 1.6 | 3.2 | 0.00 | 0.00 | 0.00 | 35 | 1010.3 |
| 20260905234027 | 37 | 224 | 0.0 | 3.2 | 0.00 | 0.00 | 0.00 | 36 | 1010.4 |
| 20260905233527 | 37 | 257 | 1.6 | 3.2 | 0.00 | 0.00 | 0.00 | 35 | 1010.3 |
| 20260905233026 | 37 | 261 | 6.4 | 6.4 | 0.00 | 0.00 | 0.00 | 35 | 1010.3 |
| 20260905232522 | 37 | 251 | 1.6 | 4.8 | 0.00 | 0.00 | 0.00 | 35 | 1010.3 |
| 20260905232018 | 37 | 265 | 3.2 | 4.8 | 0.00 | 0.00 | 0.00 | 35 | 1010.1 |
| 20260905231513 | 37 | 264 | 3.2 | 3.2 | 0.00 | 0.00 | 0.00 | 35 | 1010.3 |
| 20260905231009 | 37 | 236 | 1.6 | 4.8 | 0.00 | 0.00 | 0.00 | 34 | 1010.1 |
| 20260905230508 | 37 | 96 | 0.0 | 6.4 | 0.00 | 0.00 | 0.00 | 34 | 1010.3 |
| 20260905230006 | 37 | 266 | 6.4 | 6.4 | 0.00 | 0.00 | 0.00 | 34 | 1010.5 |
| 20260905225501 | 38 | 272 | 3.2 | 4.8 | 0.00 | 0.00 | 0.00 | 34 | 1010.2 |
| 20260905224956 | 38 | 251 | 1.6 | 4.8 | 0.00 | 0.00 | 0.00 | 34 | 1010.1 |
| 20260905224452 | 38 | 288 | 3.2 | 3.2 | 0.00 | 0.00 | 0.00 | 33 | 1010.2 |